1508608800.51,54848,13.06,73540.5,-2.69,-29.57,-26.65,0,*56
1508608801.74,54849,13.06,73534.8,-2.73,-29.29,-26.45,0,*57
1508608803.0,54850,13.13,73524.5,-2.73,-28.79,-25.81,0,*50
1508608804.26,54851,13.06,73524.5,-2.67,-28.43,-25.39,0,*5E
1508608805.5,54852,13.06,73522.5,-2.69,-28.21,-25.23,0,*5C
1508608806.72,54853,13.06,73516.3,-2.69,-28.69,-25.49,0,*5D
1508608807.93,54854,13.06,73518.3,-2.65,-29.07,-25.91,0,*5A
1508608809.14,54855,13.06,73518.3,-2.65,-28.85,-25.91,0,*50
1508608810.37,54856,13.06,73522.3,-2.67,-28.97,-26.07,0,*5E
1508608811.61,54857,13.06,73524.5,-2.67,-29.07,-26.07,0,*57
1508608812.84,54858,13.06,73528.0,-2.67,-29.07,-25.91,0,*54
1508608814.06,54859,13.06,73530.8,-2.65,-29.23,-26.03,0,*59
1508608815.35,54860,13.06,73524.3,-2.67,-29.39,-26.17,0,*5F
1508608816.61,54861,13.06,73520.3,-2.67,-29.57,-26.17,0,*56
1508608817.88,54862,13.06,73524.0,-2.65,-29.39,-26.13,0,*5B
1508608819.11,54863,13.06,73524.0,-2.65,-29.23,-25.81,0,*59
1508608820.37,54864,13.06,73520.8,-2.67,-29.29,-25.87,0,*50
1508608821.62,54865,13.06,73520.5,-2.67,-29.45,-26.03,0,*54
1508608822.85,54866,13.06,73520.0,-2.65,-28.85,-25.29,0,*53
1508608824.07,54867,13.13,73522.0,-2.65,-28.85,-25.49,0,*54
1508608825.28,54868,13.13,73522.5,-2.65,-28.85,-25.19,0,*5E
1508608826.56,54869,13.06,73518.3,-2.63,-28.47,-25.03,0,*5C
1508608827.77,54870,13.06,73514.8,-2.61,-28.31,-24.97,0,*5B
1508608829.03,54871,13.06,73520.3,-2.63,-28.37,-24.83,0,*5B
1508608830.26,54872,13.06,73532.3,-2.63,-27.77,-24.05,0,*5D
1508608831.52,54873,13.06,73536.0,-2.61,-27.83,-24.25,0,*57
1508608832.8,54874,13.13,73528.3,-2.59,-28.09,-24.41,0,*54
1508608834.01,54875,13.06,73506.5,-2.57,-28.53,-24.93,0,*5B
1508608835.23,54876,13.06,73514.3,-2.57,-27.93,-23.95,0,*5A
1508608836.49,54877,13.06,73514.3,-2.57,-28.21,-24.21,0,*55
1508608837.78,54878,13.06,73514.0,-2.55,-28.21,-24.41,0,*5E
1508608839.03,54879,13.06,73516.3,-2.53,-28.47,-24.71,0,*5A
1508608840.31,54880,13.06,73514.8,-2.55,-28.63,-25.03,0,*58
1508608841.55,54881,13.13,73522.0,-2.53,-28.37,-24.67,0,*5D
1508608842.75,54882,13.06,73518.3,-2.53,-28.15,-24.35,0,*59
1508608843.98,54883,13.06,73524.8,-2.53,-28.53,-24.67,0,*5D
1508608845.25,54884,13.06,73526.8,-2.51,-28.43,-24.67,0,*59
1508608846.49,54885,13.06,73516.0,-2.51,-28.69,-25.09,0,*59
1508608847.75,54886,13.06,73510.3,-2.51,-28.63,-25.13,0,*5B
1508608849.0,54887,13.06,73512.5,-2.51,-28.85,-25.45,0,*51
1508608850.26,54888,13.06,73518.3,-2.49,-29.29,-25.75,0,*53
1508608851.54,54889,13.06,73520.0,-2.51,-29.29,-25.81,0,*50
1508608852.8,54890,13.06,73526.5,-2.51,-29.45,-25.81,0,*52
1508608854.1,54891,13.06,73520.0,-2.51,-29.51,-25.75,0,*5D
1508608855.34,54892,13.06,73504.0,-2.53,-29.57,-25.97,0,*56
1508608856.61,54893,13.06,73496.0,-2.55,-29.57,-25.97,0,*51
1508608857.85,54894,13.06,73514.0,-2.53,-29.57,-25.97,0,*50
1508608859.11,54895,13.06,73520.8,-2.55,-29.51,-25.87,0,*50
1508608860.38,54896,13.06,73520.0,-2.55,-29.57,-25.97,0,*54
1508608861.63,54897,13.06,73524.5,-2.55,-29.73,-25.87,0,*52
1508608862.9,54898,13.06,73520.3,-2.55,-29.67,-25.97,0,*59
1508608864.14,54899,13.06,73514.0,-2.53,-29.67,-25.97,0,*5E
1508608865.35,54900,13.06,73512.8,-2.53,-29.57,-25.87,0,*5D
1508608866.62,54901,13.06,73514.8,-2.55,-29.57,-25.97,0,*5B
1508608867.83,54902,13.06,73516.3,-2.57,-29.61,-26.03,0,*51
1508608869.03,54903,13.06,73524.8,-2.57,-29.61,-25.91,0,*58
1508608870.27,54904,13.06,73526.0,-2.57,-29.61,-25.75,0,*55
1508608871.53,54905,13.06,73520.0,-2.59,-29.45,-25.45,0,*5F
1508608872.8,54906,13.06,73510.0,-2.59,-29.45,-25.55,0,*5D
1508608874.04,54907,13.06,73514.0,-2.57,-29.29,-25.39,0,*52
1508608875.3,54908,13.06,73522.5,-2.59,-29.35,-25.39,0,*5E
1508608876.54,54909,13.06,73518.8,-2.57,-29.39,-25.39,0,*5D
1508608877.78,54910,13.06,73518.5,-2.59,-29.61,-25.39,0,*56
1508608878.99,54911,13.06,73518.8,-2.57,-29.23,-25.39,0,*5F
1508608880.24,54912,13.06,73516.0,-2.57,-29.39,-25.49,0,*50
1508608881.5,54913,13.06,73516.3,-2.57,-29.39,-25.55,0,*5C
1508608882.77,54914,13.06,73514.5,-2.59,-29.17,-25.39,0,*53
1508608884.01,54915,13.06,73516.8,-2.57,-29.35,-25.49,0,*5B
1508608885.31,54916,13.06,73522.0,-2.59,-29.35,-25.55,0,*5B
1508608886.55,54917,13.06,73522.5,-2.57,-29.35,-25.39,0,*5E
1508608887.84,54918,13.06,73520.8,-2.59,-29.35,-25.45,0,*54
1508608889.11,54919,13.06,73526.5,-2.59,-29.51,-25.61,0,*51
1508608890.4,54920,13.06,73524.3,-2.59,-29.29,-25.29,0,*58
1508608891.6,54921,13.06,73522.8,-2.57,-29.23,-25.23,0,*57
1508608892.84,54922,13.06,73524.0,-2.59,-29.45,-25.23,0,*5A
1508608894.07,54923,13.06,73516.0,-2.57,-29.07,-25.03,0,*51
1508608895.31,54924,13.06,73512.0,-2.57,-29.51,-25.19,0,*5E
1508608896.52,54925,13.06,73504.5,-2.57,-29.45,-25.23,0,*53
1508608897.73,54926,13.06,73510.0,-2.57,-29.45,-25.39,0,*5B
1508608898.95,54927,13.06,73516.3,-2.57,-29.45,-25.49,0,*5D
1508608900.21,54928,13.06,73510.3,-2.59,-29.61,-25.55,0,*57
1508608901.46,54929,13.06,73518.0,-2.59,-29.45,-25.39,0,*5A
1508608902.72,54930,13.06,73514.8,-2.55,-29.35,-25.35,0,*55
1508608903.98,54931,13.06,73524.5,-2.59,-29.45,-25.45,0,*58
1508608905.25,54932,13.06,73534.0,-2.59,-29.45,-25.45,0,*5B
1508608906.54,54933,13.06,73534.8,-2.59,-29.51,-25.45,0,*5F
1508608907.83,54934,13.06,73530.3,-2.59,-29.35,-25.29,0,*50
1508608909.09,54935,13.06,73530.0,-2.59,-29.29,-25.23,0,*56
1508608910.29,54936,13.06,73526.3,-2.57,-29.23,-25.19,0,*58
1508608911.55,54937,13.06,73530.0,-2.59,-29.17,-25.13,0,*5A
1508608912.82,54938,13.06,73522.3,-2.59,-29.17,-25.13,0,*55
1508608914.08,54939,13.06,73512.8,-2.59,-29.17,-25.13,0,*54
1508608915.34,54940,13.06,73524.3,-2.59,-29.17,-25.23,0,*59
1508608916.59,54941,13.06,73518.0,-2.59,-29.17,-25.23,0,*58
1508608917.86,54942,13.06,73528.5,-2.59,-29.01,-25.13,0,*5F
1508608919.1,54943,13.06,73530.3,-2.61,-29.01,-25.09,0,*5E
1508608920.33,54944,13.06,73538.5,-2.61,-28.63,-24.47,0,*57
1508608921.58,54945,13.06,73530.8,-2.61,-28.43,-24.11,0,*57
1508608922.82,54946,13.06,73528.8,-2.57,-28.37,-24.21,0,*51
1508608924.02,54947,13.06,73534.0,-2.57,-28.53,-24.47,0,*52
1508608925.26,54948,13.06,73532.3,-2.57,-28.59,-24.77,0,*54
1508608926.52,54949,13.06,73534.3,-2.57,-28.91,-25.03,0,*53
1508608927.77,54950,13.06,73536.0,-2.57,-28.79,-25.03,0,*5D
1508608929.01,54951,13.06,73548.5,-2.57,-28.79,-25.09,0,*56
1508608930.27,54952,13.06,73548.0,-2.57,-28.79,-25.03,0,*5F
1508608931.52,54953,13.06,73530.8,-2.57,-28.75,-24.71,0,*56
1508608932.76,54954,13.06,73530.0,-2.57,-28.79,-25.09,0,*53
1508608934.04,54955,13.13,73536.8,-2.55,-28.91,-25.03,0,*5C
1508608935.3,54956,13.06,73538.0,-2.55,-29.01,-25.13,0,*56
1508608936.54,54957,13.06,73542.8,-2.55,-29.07,-24.97,0,*5C
1508608937.82,54958,13.06,73540.3,-2.55,-29.01,-25.03,0,*59
1508608939.08,54959,13.06,73524.3,-2.55,-28.53,-24.67,0,*5D
1508608940.31,54960,13.06,73512.3,-2.57,-28.79,-25.09,0,*54
1508608941.51,54961,13.06,73508.5,-2.57,-28.97,-25.19,0,*54
1508608942.72,54962,13.06,73508.8,-2.57,-28.97,-25.19,0,*57
1508608943.95,54963,13.06,73516.5,-2.57,-28.91,-25.23,0,*59
1508608945.19,54964,13.06,73526.3,-2.55,-28.85,-25.13,0,*5A
1508608946.43,54965,13.06,73530.3,-2.55,-28.85,-25.19,0,*51
1508608947.66,54966,13.06,73532.5,-2.57,-28.91,-25.09,0,*54
1508608948.9,54967,13.06,73526.3,-2.57,-28.75,-25.09,0,*5F
1508608950.13,54968,13.06,73520.8,-2.57,-28.79,-25.09,0,*5C
1508608951.37,54969,13.06,73528.5,-2.57,-28.79,-25.09,0,*5D
1508608952.61,54970,13.06,73534.8,-2.57,-29.35,-25.09,0,*5C
1508608953.85,54971,13.06,73538.3,-2.59,-28.85,-25.13,0,*52
1508608955.06,54972,13.06,73534.3,-2.57,-28.97,-25.09,0,*57
1508608956.29,54973,13.06,73546.5,-2.59,-28.97,-25.13,0,*53
1508608957.55,54974,13.06,73538.5,-2.59,-29.13,-25.13,0,*59
1508608958.82,54975,13.06,73542.8,-2.59,-29.01,-25.09,0,*50
1508608960.08,54976,13.06,73542.5,-2.59,-29.13,-25.09,0,*50
1508608961.34,54977,13.06,73542.3,-2.57,-28.91,-25.03,0,*5E
1508608962.55,54978,13.06,73526.0,-2.57,-28.97,-25.09,0,*5D
1508608963.78,54979,13.06,73526.5,-2.57,-29.13,-25.09,0,*51
1508608965.01,54980,13.06,73536.0,-2.57,-29.13,-25.09,0,*57
1508608966.28,54981,13.06,73534.0,-2.59,-29.13,-25.13,0,*53
1508608967.48,54982,13.13,73530.0,-2.57,-29.07,-25.19,0,*51
1508608968.76,54983,13.06,73524.0,-2.59,-29.13,-25.29,0,*58
1508608969.99,54984,13.06,73528.5,-2.57,-29.13,-25.23,0,*5B
1508608971.25,54985,13.06,73528.8,-2.59,-29.17,-25.23,0,*50
1508608972.51,54986,13.06,73542.0,-2.59,-29.29,-25.23,0,*5E
1508608973.74,54987,13.06,73532.3,-2.57,-29.13,-25.09,0,*50
1508608975.0,54988,13.06,73530.0,-2.59,-29.17,-25.13,0,*5E
1508608976.26,54989,13.06,73542.5,-2.59,-29.13,-25.13,0,*5B
1508608977.53,54990,13.06,73540.3,-2.59,-29.01,-25.13,0,*50
1508608978.79,54991,13.06,73544.0,-2.59,-29.01,-25.13,0,*51
1508608980.05,54992,13.06,73542.5,-2.59,-28.97,-24.83,0,*54
1508608981.28,54993,13.06,73536.3,-2.61,-28.97,-24.83,0,*5E
1508608982.51,54994,13.06,73538.0,-2.61,-28.85,-24.83,0,*5A
1508608983.73,54995,13.06,73538.3,-2.61,-28.85,-24.77,0,*50
1508608984.94,54996,13.06,73538.0,-2.61,-28.97,-24.77,0,*50
1508608986.17,54997,13.06,73538.5,-2.61,-28.79,-24.51,0,*55
1508608987.43,54998,13.06,73544.3,-2.63,-28.91,-24.57,0,*58
1508608988.66,54999,13.06,73536.5,-2.61,-28.79,-24.51,0,*5B
1508608989.9,55000,13.06,73534.8,-2.61,-28.79,-24.51,0,*53
1508608991.13,55001,13.06,73534.3,-2.61,-28.79,-24.51,0,*52
1508608992.38,55002,13.13,73542.8,-2.61,-28.59,-24.15,0,*53
1508608993.67,55003,13.06,73542.3,-2.59,-28.59,-24.25,0,*5A
1508608994.95,55004,13.06,73536.8,-2.59,-28.59,-24.11,0,*5A
1508608996.23,55005,13.06,73536.0,-2.59,-28.43,-23.99,0,*57
1508608997.48,55006,13.06,73536.8,-2.61,-28.59,-23.99,0,*54
1508608998.74,55007,13.06,73532.5,-2.61,-28.59,-24.25,0,*55
1508609000.0,55008,13.06,73532.3,-2.61,-28.63,-24.25,0,*53
1508609001.23,55009,13.06,73534.5,-2.61,-28.75,-24.31,0,*50
1508609002.46,55010,13.06,73538.3,-2.61,-28.79,-24.31,0,*54
1508609003.7,55011,13.06,73536.5,-2.61,-28.75,-24.31,0,*59
1508609004.9,55012,13.06,73542.3,-2.61,-28.97,-24.31,0,*56
1508609006.15,55013,13.06,73538.3,-2.61,-28.79,-24.15,0,*51
1508609007.43,55014,13.06,73544.3,-2.63,-28.79,-24.15,0,*54
1508609008.69,55015,13.06,73534.8,-2.63,-28.85,-24.15,0,*56
1508609009.94,55016,13.06,73534.8,-2.61,-28.75,-24.11,0,*5C
1508609011.19,55017,13.06,73532.3,-2.61,-28.63,-24.11,0,*5A
1508609012.45,55018,13.06,73538.5,-2.61,-28.79,-24.11,0,*5E
1508609013.73,55019,13.06,73534.3,-2.63,-29.01,-24.15,0,*57
1508609014.99,55020,13.06,73524.8,-2.63,-28.91,-23.75,0,*54
1508609016.25,55021,13.06,73524.8,-2.61,-28.79,-23.69,0,*5C
1508609017.51,55022,13.06,73538.5,-2.63,-29.01,-24.05,0,*5E
1508609018.77,55023,13.06,73530.5,-2.63,-29.01,-23.89,0,*5C
1508609020.02,55024,13.06,73528.8,-2.61,-29.35,-24.15,0,*5C
1508609021.28,55025,13.06,73526.8,-2.61,-29.01,-23.99,0,*59
1508609022.52,55026,13.06,73520.5,-2.63,-29.07,-24.05,0,*5C
1508609023.77,55027,13.06,73518.8,-2.63,-29.17,-24.05,0,*5C
1508609025.01,55028,13.06,73528.5,-2.63,-29.23,-24.05,0,*54
1508609026.27,55029,13.06,73528.8,-2.63,-29.17,-24.05,0,*52
1508609027.5,55030,13.06,73528.5,-2.63,-29.07,-24.05,0,*5B
1508609028.74,55031,13.06,73536.5,-2.63,-29.07,-24.05,0,*5A
1508609030.0,55032,13.06,73534.0,-2.63,-29.17,-24.05,0,*58
1508609031.26,55033,13.06,73534.5,-2.63,-29.17,-24.05,0,*59
1508609032.51,55034,13.13,73534.0,-2.63,-29.17,-24.05,0,*5E
1508609033.79,55035,13.06,73534.5,-2.67,-29.13,-24.11,0,*5A
1508609035.0,55036,13.06,73534.8,-2.65,-29.23,-24.05,0,*5D
1508609036.23,55037,13.06,73540.0,-2.65,-29.29,-24.05,0,*56
1508609037.51,55038,13.06,73548.0,-2.67,-29.29,-24.11,0,*5E
1508609038.77,55039,13.06,73548.3,-2.67,-29.39,-24.05,0,*5B
1508609039.98,55040,13.06,73550.3,-2.65,-29.23,-24.05,0,*5C
1508609041.19,55041,13.06,73546.8,-2.65,-29.23,-24.05,0,*5D
1508609042.4,55042,13.06,73544.3,-2.65,-29.23,-24.05,0,*5E
1508609043.65,55043,13.06,73550.8,-2.67,-29.29,-24.05,0,*57
1508609044.91,55044,13.06,73552.8,-2.67,-29.23,-24.11,0,*5F
1508609046.18,55045,13.06,73550.3,-2.67,-29.29,-24.11,0,*54
1508609047.4,55046,13.06,73552.5,-2.69,-29.23,-24.05,0,*56
1508609048.66,55047,13.06,73546.3,-2.69,-29.13,-23.95,0,*5A
1508609049.91,55048,13.06,73540.8,-2.73,-29.17,-24.11,0,*51
1508609051.12,55049,13.06,73548.8,-2.69,-29.07,-24.05,0,*5F
1508609052.33,55050,13.06,73554.3,-2.69,-28.97,-23.89,0,*5C
1508609053.58,55051,13.06,73554.5,-2.73,-29.13,-23.99,0,*5A
1508609054.84,55052,13.06,73548.5,-2.69,-28.75,-23.65,0,*50
1508609056.08,55053,13.06,73542.5,-2.69,-28.53,-23.29,0,*5D
1508609057.34,55054,13.06,73544.3,-2.69,-28.59,-23.29,0,*50
1508609058.6,55055,13.06,73542.8,-2.67,-28.59,-23.39,0,*5E
1508609059.86,55056,13.06,73534.0,-2.73,-28.79,-23.49,0,*5D
1508609061.11,55057,13.06,73526.3,-2.73,-28.63,-23.69,0,*55
1508609062.35,55058,13.06,73534.0,-2.69,-28.75,-23.79,0,*57
1508609063.63,55059,13.06,73544.0,-2.67,-28.59,-23.65,0,*5B
1508609064.88,55060,13.06,73538.8,-2.67,-28.69,-23.65,0,*52
1508609066.14,55061,13.06,73526.8,-2.67,-28.75,-23.75,0,*5F
1508609067.4,55062,13.06,73524.3,-2.67,-28.69,-23.65,0,*50
1508609068.66,55063,13.06,73530.3,-2.67,-28.59,-23.75,0,*53
1508609069.89,55064,13.06,73538.3,-2.67,-28.53,-23.79,0,*52
1508609071.11,55065,13.06,73530.0,-2.69,-28.69,-23.79,0,*54
1508609072.37,55066,13.06,73524.0,-2.67,-28.59,-23.75,0,*56
1508609073.6,55067,13.06,73526.0,-2.69,-28.75,-23.89,0,*54
1508609074.81,55068,13.06,73524.5,-2.69,-28.85,-23.59,0,*59
1508609076.08,55069,13.06,73528.0,-2.67,-28.59,-23.43,0,*5C
1508609077.36,55070,13.06,73530.0,-2.67,-28.43,-23.53,0,*5E
1508609078.62,55071,13.06,73530.5,-2.67,-28.25,-23.43,0,*5E
1508609079.85,55072,13.06,73532.8,-2.65,-28.31,-23.53,0,*5B
1508609081.11,55073,13.06,73530.5,-2.67,-28.21,-23.39,0,*55
1508609082.32,55074,13.06,73522.3,-2.65,-28.31,-23.39,0,*51
1508609083.6,55075,13.06,73534.5,-2.67,-28.21,-23.53,0,*5F
1508609084.86,55076,13.06,73538.3,-2.65,-28.05,-23.53,0,*58
1508609086.09,55077,13.06,73540.5,-2.65,-27.89,-23.23,0,*55
1508609087.35,55078,13.06,73542.5,-2.65,-27.99,-23.19,0,*52
1508609088.55,55079,13.06,73542.0,-2.65,-27.89,-23.39,0,*50
1508609089.79,55080,13.06,73536.8,-2.65,-28.21,-23.59,0,*5D
1508609091.05,55081,13.06,73536.0,-2.63,-28.21,-23.59,0,*5A
1508609092.3,55082,13.06,73540.8,-2.63,-28.31,-23.69,0,*5B
1508609093.56,55083,13.06,73548.0,-2.63,-28.37,-23.69,0,*5C
1508609094.84,55084,13.06,73550.3,-2.63,-28.47,-23.85,0,*5E
1508609096.09,55085,13.06,73546.3,-2.61,-28.47,-23.69,0,*5F
1508609097.34,55086,13.06,73522.8,-2.61,-28.43,-23.95,0,*5B
1508609098.59,55087,13.06,73528.0,-2.61,-28.59,-23.99,0,*5D
1508609099.83,55088,13.06,73532.3,-2.63,-28.69,-24.05,0,*51
1508609101.08,55089,13.06,73530.0,-2.61,-28.75,-23.99,0,*5D
1508609102.34,55090,13.06,73512.8,-2.63,-28.79,-24.05,0,*59
1508609103.63,55091,13.06,73516.3,-2.63,-28.79,-24.21,0,*5E
1508609104.88,55092,13.06,73522.0,-2.61,-28.63,-24.11,0,*57
1508609106.11,55093,13.06,73518.0,-2.61,-28.85,-24.15,0,*5A
1508609107.38,55094,13.06,73518.3,-2.63,-28.69,-24.21,0,*5A
1508609108.67,55095,13.06,73534.5,-2.63,-28.79,-24.21,0,*5A
1508609109.9,55096,13.06,73532.3,-2.61,-28.79,-24.31,0,*5A
1508609111.15,55097,13.06,73536.8,-2.61,-28.63,-24.15,0,*56
1508609112.41,55098,13.06,73536.5,-2.63,-28.79,-24.31,0,*56
1508609113.64,55099,13.06,73534.5,-2.63,-28.69,-24.35,0,*52
1508609114.88,55100,13.06,73542.3,-2.63,-28.69,-24.31,0,*57
1508609116.13,55101,13.06,73550.0,-2.65,-28.63,-24.15,0,*5C
1508609117.39,55102,13.06,73540.8,-2.65,-28.63,-24.21,0,*58
1508609118.62,55103,13.06,73538.8,-2.65,-28.53,-24.15,0,*5D
1508609119.85,55104,13.06,73540.0,-2.65,-28.37,-23.99,0,*5B
1508609121.06,55105,13.06,73542.0,-2.65,-28.31,-24.05,0,*5E
1508609122.26,55106,13.06,73542.8,-2.65,-28.15,-23.89,0,*58
1508609123.51,55107,13.06,73534.3,-2.63,-28.31,-24.15,0,*5B
1508609124.78,55108,13.06,73536.0,-2.63,-28.47,-24.15,0,*55
1508609126.01,55109,13.06,73542.5,-2.65,-28.37,-24.15,0,*55
1508609127.24,55110,13.06,73538.0,-2.65,-28.47,-24.35,0,*58
1508609128.46,55111,13.06,73548.5,-2.65,-28.31,-24.15,0,*5A
1508609129.74,55112,13.06,73544.3,-2.63,-28.21,-24.15,0,*5E
1508609131.0,55113,13.06,73546.0,-2.63,-28.21,-24.05,0,*5E
1508609132.23,55114,13.06,73550.8,-2.65,-27.99,-23.89,0,*50
1508609133.45,55115,13.06,73544.5,-2.65,-28.31,-24.15,0,*5E
1508609134.73,55116,13.06,73540.8,-2.63,-28.47,-24.15,0,*5A
1508609135.99,55117,13.06,73542.8,-2.63,-28.53,-24.15,0,*5E
1508609137.25,55118,13.06,73546.0,-2.63,-28.31,-24.21,0,*52
1508609138.48,55119,13.06,73544.8,-2.61,-28.21,-24.31,0,*51
1508609139.71,55120,13.06,73546.5,-2.61,-28.09,-23.79,0,*5A
1508609140.97,55121,13.06,73548.0,-2.61,-27.99,-23.99,0,*53
1508609142.22,55122,13.06,73540.5,-2.61,-28.09,-23.99,0,*56
1508609143.45,55123,13.06,73540.5,-2.61,-28.15,-23.99,0,*5A
1508609144.7,55124,13.06,73546.3,-2.61,-28.09,-24.11,0,*57
1508609145.99,55125,13.06,73542.5,-2.63,-28.21,-24.21,0,*5D
1508609147.24,55126,13.06,73536.0,-2.61,-27.99,-23.95,0,*58
1508609148.5,55127,13.06,73542.3,-2.61,-28.09,-23.99,0,*53
1508609149.75,55128,13.06,73538.5,-2.59,-28.31,-24.15,0,*5F
1508609151.0,55129,13.06,73548.8,-2.59,-28.43,-24.31,0,*5D
1508609152.23,55130,13.06,73542.5,-2.57,-28.37,-24.41,0,*5F
1508609153.49,55131,13.06,73548.0,-2.59,-28.47,-24.47,0,*51
1508609154.77,55132,13.06,73548.8,-2.59,-28.25,-24.41,0,*50
1508609156.05,55133,13.06,73548.5,-2.59,-27.83,-23.95,0,*5C
1508609157.31,55134,13.06,73536.5,-2.59,-28.25,-24.47,0,*50
1508609158.54,55135,13.06,73536.5,-2.59,-28.15,-24.47,0,*52
1508609159.77,55136,13.06,73538.8,-2.59,-28.31,-24.77,0,*54
1508609161.05,55137,13.13,73534.5,-2.59,-28.47,-24.83,0,*5F
1508609162.3,55138,13.06,73530.3,-2.59,-28.47,-24.97,0,*55
1508609163.56,55139,13.06,73520.0,-2.59,-28.47,-24.97,0,*54
1508609164.81,55140,13.06,73534.5,-2.59,-28.47,-25.13,0,*57
1508609166.04,55141,13.06,73534.8,-2.61,-28.47,-25.09,0,*56
1508609167.3,55142,13.06,73526.5,-2.63,-28.47,-25.13,0,*5C
1508609168.56,55143,13.06,73532.0,-2.59,-28.43,-25.13,0,*50
1508609169.82,55144,13.06,73540.5,-2.59,-28.43,-25.13,0,*57
1508609171.08,55145,13.06,73534.0,-2.59,-28.25,-24.97,0,*5B
1508609172.33,55146,13.06,73542.8,-2.59,-28.15,-24.67,0,*54
1508609173.56,55147,13.06,73542.8,-2.61,-27.83,-24.47,0,*5C
1508609174.79,55148,13.06,73540.3,-2.61,-27.93,-24.41,0,*54
1508609176.03,55149,13.06,73536.3,-2.59,-27.93,-24.51,0,*5F
1508609177.31,55150,13.06,73542.3,-2.59,-27.99,-24.83,0,*52
1508609178.54,55151,13.06,73544.5,-2.59,-27.71,-24.47,0,*5D
1508609179.81,55152,13.06,73536.0,-2.59,-27.61,-24.47,0,*5F
1508609181.01,55153,13.06,73540.0,-2.57,-27.89,-24.77,0,*55
1508609182.27,55154,13.06,73534.0,-2.55,-28.05,-24.97,0,*55
1508609183.5,55155,13.06,73538.5,-2.57,-28.21,-25.23,0,*5E
1508609184.79,55156,13.06,73538.3,-2.59,-28.43,-25.55,0,*56
1508609186.05,55157,13.06,73542.5,-2.57,-28.43,-25.55,0,*59
1508609187.28,55158,13.06,73538.3,-2.57,-28.31,-25.55,0,*53
1508609188.52,55159,13.06,73536.3,-2.57,-28.21,-25.49,0,*5E
1508609189.82,55160,13.06,73536.8,-2.59,-28.25,-25.55,0,*53
1508609191.08,55161,13.06,73538.3,-2.59,-28.31,-25.55,0,*57
1508609192.34,55162,13.13,73542.5,-2.57,-28.21,-25.55,0,*5B
1508609193.63,55163,13.06,73540.5,-2.59,-28.43,-25.75,0,*52
1508609194.86,55164,13.06,73538.8,-2.57,-28.09,-25.39,0,*5D
1508609196.1,55165,13.06,73542.8,-2.57,-28.37,-25.75,0,*59
1508609197.36,55166,13.06,73542.5,-2.59,-28.31,-25.75,0,*52
1508609198.63,55167,13.06,73544.8,-2.59,-28.31,-25.75,0,*53
1508609199.89,55168,13.06,73542.0,-2.59,-28.09,-25.61,0,*52
1508609201.15,55169,13.06,73542.0,-2.59,-27.99,-25.39,0,*58
1508609202.41,55170,13.06,73534.5,-2.59,-27.93,-25.45,0,*51
1508609203.62,55171,13.06,73538.0,-2.57,-27.71,-25.23,0,*52
1508609204.91,55172,13.06,73534.8,-2.59,-28.09,-25.75,0,*5C
1508609206.16,55173,13.06,73534.8,-2.57,-28.09,-25.75,0,*53
1508609207.4,55174,13.06,73528.3,-2.57,-28.25,-25.91,0,*50
1508609208.63,55175,13.06,73528.5,-2.57,-28.21,-25.87,0,*52
1508609209.87,55176,13.06,73536.3,-2.57,-28.25,-26.03,0,*5A
1508609211.13,55177,13.06,73542.8,-2.59,-28.43,-26.39,0,*5C
1508609212.36,55178,13.06,73534.8,-2.57,-28.37,-26.33,0,*54
1508609213.6,55179,13.06,73540.8,-2.57,-28.43,-26.39,0,*5C
1508609214.85,55180,13.06,73550.8,-2.59,-28.47,-26.65,0,*59
1508609216.08,55181,13.06,73548.0,-2.57,-28.43,-26.61,0,*56
1508609217.28,55182,13.06,73544.0,-2.57,-28.37,-26.49,0,*5C
1508609218.51,55183,13.06,73534.0,-2.59,-28.31,-26.65,0,*5B
1508609219.79,55184,13.06,73536.5,-2.59,-28.47,-26.97,0,*50
1508609221.08,55185,13.06,73532.0,-2.59,-28.59,-26.97,0,*5E
1508609222.33,55186,13.06,73524.3,-2.59,-28.47,-27.07,0,*5A
1508609223.6,55187,13.06,73530.5,-2.59,-28.59,-27.29,0,*58
1508609224.88,55188,13.06,73534.8,-2.59,-28.63,-27.39,0,*5F
1508609226.16,55189,13.06,73538.3,-2.59,-28.75,-27.45,0,*52
1508609227.42,55190,13.06,73546.3,-2.59,-28.63,-27.55,0,*5C
1508609228.68,55191,13.06,73540.5,-2.59,-28.63,-27.55,0,*5D
1508609229.94,55192,13.06,73544.3,-2.61,-28.63,-27.61,0,*52
1508609231.17,55193,13.06,73538.5,-2.61,-28.31,-27.45,0,*52
1508609232.42,55194,13.06,73536.3,-2.61,-27.99,-26.97,0,*56
1508609233.63,55195,13.06,73538.0,-2.61,-28.15,-27.13,0,*51
1508609234.89,55196,13.06,73536.0,-2.61,-28.25,-27.23,0,*52
1508609236.12,55197,13.06,73538.3,-2.61,-27.99,-27.13,0,*58
1508609237.38,55198,13.06,73542.0,-2.61,-27.99,-27.23,0,*54
1508609238.66,55199,13.06,73546.0,-2.59,-28.43,-27.61,0,*50
1508609239.89,55200,13.06,73548.5,-2.59,-28.31,-27.55,0,*51
1508609241.15,55201,13.06,73540.0,-2.59,-28.09,-27.29,0,*50
1508609242.39,55202,13.06,73546.8,-2.59,-28.15,-27.29,0,*5E
1508609243.63,55203,13.06,73550.3,-2.59,-28.15,-27.29,0,*5F
1508609244.89,55204,13.06,73542.8,-2.57,-28.21,-27.39,0,*50
1508609246.12,55205,13.06,73546.8,-2.57,-28.21,-27.51,0,*5F
1508609247.35,55206,13.06,73540.0,-2.57,-28.25,-27.51,0,*58
1508609248.58,55207,13.06,73538.0,-2.57,-28.25,-27.51,0,*59
1508609249.79,55208,13.06,73540.5,-2.57,-28.37,-27.71,0,*57
1508609251.05,55209,13.06,73546.3,-2.57,-28.59,-28.05,0,*52
1508609252.28,55210,13.06,73540.8,-2.57,-28.69,-28.05,0,*59
1508609253.54,55211,13.06,73538.5,-2.57,-28.59,-28.05,0,*5B
1508609254.8,55212,13.06,73540.5,-2.55,-28.69,-27.99,0,*53
1508609256.06,55213,13.06,73542.8,-2.55,-28.63,-28.15,0,*53
1508609257.32,55214,13.06,73538.8,-2.55,-28.63,-27.89,0,*5E
1508609258.58,55215,13.06,73546.3,-2.55,-28.53,-27.99,0,*5D
1508609259.82,55216,13.06,73544.8,-2.55,-28.53,-27.67,0,*5F
1508609261.08,55217,13.06,73544.0,-2.55,-27.51,-26.81,0,*5A
1508609262.31,55218,13.06,73540.5,-2.55,-27.51,-26.87,0,*53
1508609263.54,55219,13.06,73532.0,-2.53,-27.83,-27.13,0,*57
1508609264.82,55220,13.06,73532.8,-2.51,-28.43,-27.61,0,*59
1508609266.09,55221,13.06,73530.8,-2.51,-28.47,-27.83,0,*50
1508609267.32,55222,13.06,73534.5,-2.51,-28.69,-27.93,0,*5E
1508609268.61,55223,13.06,73536.8,-2.51,-28.79,-28.25,0,*5C
1508609269.87,55224,13.06,73544.5,-2.51,-28.85,-28.25,0,*58
1508609271.1,55225,13.06,73542.8,-2.53,-29.01,-28.37,0,*55
1508609272.38,55226,13.06,73544.0,-2.55,-29.17,-28.47,0,*50
1508609273.65,55227,13.06,73542.5,-2.53,-29.35,-28.47,0,*57
1508609274.85,55228,13.06,73546.8,-2.53,-29.23,-28.53,0,*5A
1508609276.12,55229,13.06,73538.0,-2.53,-29.51,-28.63,0,*5D
1508609277.41,55230,13.06,73532.5,-2.55,-29.51,-28.47,0,*55
1508609278.65,55231,13.06,73546.5,-2.53,-29.35,-28.37,0,*57
1508609279.89,55232,13.06,73536.3,-2.53,-29.67,-28.47,0,*54
1508609281.17,55233,13.06,73544.5,-2.55,-29.73,-28.63,0,*50
1508609282.4,55234,13.06,73546.3,-2.55,-29.67,-28.69,0,*58
1508609283.64,55235,13.06,73544.5,-2.55,-29.67,-28.69,0,*59
1508609284.9,55236,13.06,73548.8,-2.55,-29.67,-28.63,0,*50
1508609286.15,55237,13.06,73548.3,-2.53,-29.51,-28.31,0,*55
1508609287.39,55238,13.06,73546.3,-2.53,-29.51,-28.31,0,*5A
1508609288.63,55239,13.06,73552.8,-2.55,-29.67,-28.15,0,*5E
1508609289.9,55240,13.06,73542.8,-2.55,-29.51,-28.15,0,*55
1508609291.17,55241,13.06,73544.3,-2.55,-29.57,-28.05,0,*53
1508609292.45,55242,13.06,73530.8,-2.55,-29.73,-28.21,0,*50
1508609293.72,55243,13.06,73528.5,-2.55,-29.67,-28.21,0,*54
1508609294.98,55244,13.06,73538.0,-2.55,-29.89,-28.31,0,*52
1508609296.25,55245,13.06,73542.3,-2.55,-29.95,-28.63,0,*59
1508609297.5,55246,13.06,73530.5,-2.55,-30.39,-28.85,0,*5C
1508609298.76,55247,13.06,73534.5,-2.55,-30.27,-28.91,0,*57